TimeCST,TemperatureF,Dew PointF,Humidity,Sea Level PressureIn,VisibilityMPH,Wind Direction,Wind SpeedMPH,Gust SpeedMPH,PrecipitationIn,Events,Conditions,WindDirDegrees,DateUTC
12:58 AM,43.2,35.8,75,30.30,10.0,North,3.5,-,N/A,,Clear,350,2013-02-03 06:58:00
1:58 AM,43.0,35.4,75,30.28,10.0,North,2.3,-,N/A,,Clear,350,2013-02-03 07:58:00
2:58 AM,41.4,35.1,78,30.28,10.0,NW,2.3,-,N/A,,Clear,310,2013-02-03 08:58:00
3:58 AM,37.9,35.2,90,30.28,10.0,NNW,2.3,-,N/A,,Clear,340,2013-02-03 09:58:00
4:58 AM,34.9,32.5,91,30.28,10.0,Calm,Calm,-,N/A,,Clear,0,2013-02-03 10:58:00
5:58 AM,35.4,32.5,89,30.29,10.0,Calm,Calm,-,N/A,,Clear,0,2013-02-03 11:58:00
6:58 AM,33.6,31.8,93,30.29,10.0,Calm,Calm,-,N/A,,Clear,0,2013-02-03 12:58:00
7:58 AM,34.9,32.2,90,30.30,10.0,South,1.2,-,N/A,,Clear,180,2013-02-03 13:58:00
8:58 AM,45.7,39.7,80,30.31,10.0,Calm,Calm,-,N/A,,Clear,0,2013-02-03 14:58:00
9:58 AM,54.5,37.4,52,30.31,10.0,NNW,1.2,-,N/A,,Clear,330,2013-02-03 15:58:00
10:58 AM,61.5,35.1,37,30.32,10.0,NNW,12.7,17.3,N/A,,Clear,330,2013-02-03 16:58:00
11:58 AM,64.2,33.3,32,30.30,10.0,NNW,12.7,-,N/A,,Clear,340,2013-02-03 17:58:00
12:58 PM,66.6,29.1,25,30.26,10.0,NNW,4.6,-,N/A,,Clear,340,2013-02-03 18:58:00
1:58 PM,67.1,28.0,23,30.21,10.0,NNE,9.2,-,N/A,,Clear,20,2013-02-03 19:58:00
2:58 PM,67.3,27.5,22,30.19,10.0,West,8.1,-,N/A,,Clear,280,2013-02-03 20:58:00
3:58 PM,67.5,27.5,22,30.18,10.0,SSW,3.5,-,N/A,,Clear,210,2013-02-03 21:58:00
4:58 PM,66.4,28.0,24,30.16,10.0,West,1.2,-,N/A,,Clear,280,2013-02-03 22:58:00
5:58 PM,62.8,26.4,25,30.15,10.0,Calm,Calm,-,0.00,Rain,Light Rain,0,2013-02-03 23:58:00
6:58 PM,53.6,29.5,40,30.14,10.0,ESE,3.5,-,0.00,,Clear,120,2013-02-04 00:58:00
7:58 PM,48.2,33.6,57,30.14,10.0,ESE,2.3,-,N/A,,Clear,110,2013-02-04 01:58:00
8:58 PM,46.4,33.1,60,30.14,10.0,East,2.3,-,N/A,,Clear,100,2013-02-04 02:58:00
9:58 PM,44.2,32.9,64,30.13,10.0,SSW,2.3,-,N/A,,Overcast,210,2013-02-04 03:58:00
10:58 PM,47.8,33.6,58,30.11,10.0,SE,3.5,-,N/A,,Mostly Cloudy,140,2013-02-04 04:58:00
11:58 PM,45.0,36.3,72,30.08,10.0,SSE,2.3,-,N/A,,Overcast,150,2013-02-04 05:58:00